Location: Goettingen
(51.5300°N, 9.9433°E)
Time: 13:37:01
(UTC+01:00)

ISS - Pass Details

Date: 22 November 2023
Orbit: 416 x 417 km, 51.6° (Epoch: 02 December)

Event Time Altitude Azimuth Distance (km) Brightness Sun altitude
Rises 19:02:01 0° 260° (W) 2,360 1.4 -24.2°
Reaches altitude 10° 19:04:06 10° 261° (W) 1,498 0.1 -24.6°
Enters shadow 19:06:10 35° 260° (W) 703 -2.1 -24.9°
